Regional Weather Roundup
Issued by NWS

Home | Current Version | Previous Version | Graphics & Text | Print | Product List | Glossary On
Versions: 1 2 3 4 5 6 7 8 9 10 11 12 13 14 15 16 17 18 19 20 21 22 23 24 25 26 27 28 29 30 31 32 33 34 35 36 37 38 39 40 41 42 43 44 45 46 47 48 49 50
282
ASUS45 KBOU 081507
RWRCO

WEATHER ROUNDUP FOR COLORADO
NATIONAL WEATHER SERVICE DENVER/BOULDER CO
800 AM MST THU DEC 08 2016

NOTE: "FAIR" INDICATES FEW OR NO CLOUDS BELOW 12000 FEET WITH NO
SIGNIFICANT WEATHER AND/OR OBSTRUCTIONS TO VISIBILITY.

COZ001>005-013-030-031-081600-
...NORTHWEST COLORADO...

CITY           SKY/WX    TMP DP  RH WIND       PRES   REMARKS
CRAIG            N/A     -1  -7  75 CALM      30.32R
HAYDEN         FAIR      -2 -11  65 E8        30.28S WCI -17
MEEKER         MOCLDY     2  -3  80 CALM      30.30R
MOUNT WERNER   NOT AVBL
STEAMBOAT SPGS FAIR      -9 -14  79 CALM      30.29R
WALDEN           N/A    -22 -31  63 CALM      30.23R
$$

COZ006>008-011-081600-
...WEST CENTRAL VALLEYS...

CITY           SKY/WX    TMP DP  RH WIND       PRES   REMARKS
GRAND JUNCTION CLOUDY    17   8  67 CALM      30.36R
MONTROSE       CLOUDY    16   9  74 SE5       30.36R WCI   9
EAGLE          CLOUDY     0  -8  71 CALM      30.39R
RIFLE          FAIR      11   4  73 CALM      30.37R
DELTA          CLOUDY    18   6  60 CALM      30.38R
NUCLA          CLOUDY    14   1  57 CALM      30.36R
$$

COZ017>023-064>068-081600-
...SOUTHWEST COLORADO...

CITY           SKY/WX    TMP DP  RH WIND       PRES   REMARKS
DURANGO        CLOUDY    13   3  64 N3        30.30R
CORTEZ         CLOUDY    16  10  77 SE3       30.29S
PAGOSA SPRINGS MOCLDY     7  -2  66 CALM      30.27R
TELLURIDE      CLOUDY    16 -10  31 CALM      30.21R
WOLF CREEK PAS FAIR       3 -22  30 SW15G23   30.17R WCI -15
$$

COZ009-010-012-014-032>034-037-058>063-081600-
...CENTRAL COLORADO...

CITY           SKY/WX    TMP DP  RH WIND       PRES   REMARKS
ASPEN          MOCLDY     1  -2  87 CALM      30.23R
BUENA VISTA    FAIR       2  -7  65 W3        30.24R
COPPER MTN     MOCLDY     7 -27  19 MISG      30.04R
BERTHOUD PASS  MOCLDY    -4 -15  59 NW20G30   29.98R WCI -27
COTTONWOOD PAS CLOUDY     9   0  66 E7        30.11S WCI  -3
GUNNISON       FAIR      -1  -6  79 CALM      30.34R
KREMMLING      FAIR     N/A N/A N/A CALM      30.34R
LEADVILLE      CLOUDY     0  -9  65 VRB6      30.09S WCI -12
MONARCH PASS   CLOUDY     1 -17  42 W32       30.16R WCI -25
SALIDA         FAIR       4  -1  76 W3        30.34R
SUNLIGHT       CLOUDY     1  -2  85 SW13G18   30.15R WCI -16
WILKERSON PASS FAIR       0  -8  71 SW14G21   30.07R WCI -19
$$

COZ069>075-081600-
...SAN LUIS VALLEY/SANGRE DE CRISTO MOUNTAINS...

CITY           SKY/WX    TMP DP  RH WIND       PRES   REMARKS
ALAMOSA        FAIR      -2  -6  83 CALM      30.28R
LA VETA PASS   FAIR       5   1  85 NE24G33   30.10R WCI -17
SAGUACHE       FAIR       7  -6  56 NW15      30.26S WCI -11
$$

COZ035-036-038>040-081600-
...NORTHERN COLORADO FRONT RANGE...

CITY           SKY/WX    TMP DP  RH WIND       PRES   REMARKS
DENVER INTL AP MOCLDY    -3  -7  82 S3        30.39R
DMNS CITY PARK   N/A      2  -2  83 SE5       30.41R WCI  -8
AURORA         MOCLDY    -1  -5  84 S5        30.37R WCI -11
FRONT RANGE AP PTCLDY    -6  -9  84 S5        30.39R WCI -17
ERIE MUNI ARPT FLURRIES   2  -1  85 CALM      30.42R
BOULDER MUN AP MOCLDY     3   0  85 CALM      30.40R
CENTENNIAL     MOCLDY     1  -3  83 CALM      30.35R
BROOMFIELD     MOCLDY     3   1  92 CALM      30.38R
FORT COLLINS   FAIR      -6  -6 100 CALM      30.43R
LONGMONT       FAIR       2  -4  76 CALM      30.45R
$$

COZ041-046-047-076>085-087-088-081600-
...PIKES PEAK/PALMER DIVIDE AND SOUTHERN FOOTHILLS...

CITY           SKY/WX    TMP DP  RH WIND       PRES   REMARKS
COLO. SPRINGS  LGT SNOW   7   3  84 SE6       30.36R VSB 1   WCI  -3
A. F. ACADEMY  LGT SNOW   6   2  82 S8        30.31R WCI  -7
SCHRIEVER AFB  NOT AVBL
ELLICOTT       LGT SNOW N/A N/A N/A S6          N/A
FALCON         LGT SNOW   5   1  83 S6        30.31R VSB 3/4 WCI  -6
FORT CARSON    LGT SNOW   9   5  85 S8        30.37R FOG     WCI  -4
LIMON          FAIR      -4  -8  83 CALM      30.42R
MONUMENT HILL  FAIR       3   0  85 S7        30.27S WCI  -9
TRINIDAD       LGT SNOW  11   6  81 CALM      30.38S
$$

COZ042>045-048>051-090-091-081600-
...NORTHEAST COLORADO...

CITY           SKY/WX    TMP DP  RH WIND       PRES   REMARKS
GREELEY ARPT   FAIR     -10 -16  74 CALM      30.48R
AKRON          FAIR      -4  -9  79 W8        30.46R WCI -19
BURLINGTON     FAIR       3  -7  63 N12       30.51R WCI -13
WRAY           NOT AVBL
STERLING       FAIR     -11 -15  84 SW8       30.53R WCI -28
HOLYOKE        FAIR       1  -8  66 NW7       30.54S WCI -11
FORT MORGAN    FAIR      -6 -11  77 SW5       30.49R WCI -17
$$

COZ086-089-092>099-081600-
...SOUTHEAST COLORADO...

CITY           SKY/WX    TMP DP  RH WIND       PRES   REMARKS
PUEBLO         CLOUDY    15   8  73 SE12      30.46R WCI   2
LA JUNTA       FAIR      11   5  77 E5        30.52R WCI   3
LAMAR          FAIR       7   2  80 CALM      30.57R
SPRINGFIELD      N/A      6   1  80 CALM      30.52R
$$




USA.gov is the U.S. government's official web portal to all federal, state and local government web resources and services.